Location: Brahman Valley
(40.6513°N, 111.8855°W)
Time: 03:02:19
(UTC+00:00)

deb Explorer IX - All Passes

Search period start: 12 May 2021 00:00
Search period end: 22 May 2021 00:00
Orbit: 541 x 1098 km, 38.8° (Epoch: 11 May)

Date Brightness Start Highest point End Pass type
(mag) Time Alt. Az. Time Alt. Az. Time Alt. Az.
12 May - 03:54:37 10° SSW 03:59:54 24° SSE 04:04:43 10° E visible
12 May - 05:40:17 10° WSW 05:46:34 55° SSE 05:51:57 10° E visible
12 May - 07:27:32 10° W 07:33:28 74° S 07:38:28 10° E night (unlit)
12 May - 09:15:01 10° W 09:20:09 49° SSW 09:24:34 10° SE visible
12 May - 11:03:23 10° WSW 11:06:07 15° SW 11:08:42 10° S visible
13 May - 03:30:36 10° SSW 03:36:03 25° SSE 03:41:03 10° E visible
13 May - 05:16:18 10° WSW 05:22:45 56° SSE 05:28:19 10° E visible
13 May - 07:03:34 10° W 07:09:41 75° S 07:14:52 10° E visible
13 May - 08:51:06 10° W 08:56:25 50° SSW 09:00:58 10° SE night (unlit)
13 May - 10:39:29 10° WSW 10:42:25 16° SW 10:45:10 10° S visible
14 May - 03:06:36 10° SSW 03:12:12 26° SSE 03:17:22 10° E visible
14 May - 04:52:18 10° WSW 04:58:55 56° SSE 05:04:40 10° E visible
14 May - 06:39:36 10° W 06:45:55 75° S 06:51:15 10° E visible
14 May - 08:27:10 10° W 08:32:41 51° SSW 08:37:23 10° SE night (unlit)
14 May - 10:15:33 10° WSW 10:18:43 17° SW 10:21:38 10° S night (unlit)
15 May - 02:42:36 10° SSW 02:48:19 26° SSE 02:53:38 10° E daylight
15 May - 04:28:19 10° WSW 04:35:04 57° SSE 04:41:00 10° E visible
15 May - 06:15:37 10° W 06:22:07 76° S 06:27:37 10° E visible
15 May - 08:03:13 10° W 08:08:57 52° SSW 08:13:48 10° SE visible
15 May - 09:51:36 10° WSW 09:55:00 17° SW 09:58:05 10° S night (unlit)
16 May - 02:18:37 10° SSW 02:24:26 27° SSE 02:29:54 10° E daylight
16 May - 04:04:19 10° WSW 04:11:12 58° SSE 04:17:18 10° E visible
16 May - 05:51:38 10° W 05:58:17 76° S 06:03:58 10° E visible
16 May - 07:39:16 10° W 07:45:10 53° SSW 07:50:12 10° ESE visible
16 May - 09:27:38 10° W 09:31:15 18° SW 09:34:33 10° S night (unlit)
17 May - 01:54:39 10° SSW 02:00:32 27° SSE 02:06:08 10° E daylight
17 May - 03:40:20 10° WSW 03:47:19 58° SSE 03:53:35 10° E visible
17 May - 05:27:39 10° W 05:34:28 77° S 05:40:19 10° E visible
17 May - 07:15:17 10° W 07:21:23 53° SSW 07:26:34 10° ESE visible
17 May - 09:03:39 10° W 09:07:31 19° SW 09:11:00 10° S night (unlit)
18 May - 01:30:42 10° SSW 01:36:38 28° SSE 01:42:21 10° E daylight
18 May - 03:16:22 10° WSW 03:23:26 59° SSE 03:29:51 10° E visible
18 May - 05:03:39 10° W 05:10:36 77° S 05:16:38 10° E visible
18 May - 06:51:18 10° W 06:57:35 54° SSW 07:02:57 10° ESE visible
18 May - 08:39:40 10° W 08:43:45 20° SW 08:47:26 10° S night (unlit)
19 May - 01:06:46 10° SSW 01:12:44 28° SSE 01:18:32 10° E daylight
19 May - 02:52:24 10° WSW 02:59:31 59° SSE 03:06:05 10° E daylight
19 May - 04:39:40 10° W 04:46:44 77° S 04:52:56 10° E visible
19 May - 06:27:18 10° W 06:33:46 55° SSW 06:39:18 10° ESE visible
19 May - 08:15:39 10° W 08:19:59 21° SW 08:23:52 10° S visible
20 May - 00:42:51 10° SSW 00:48:48 28° SSE 00:54:41 10° E daylight
20 May - 02:28:26 10° WSW 02:35:36 60° SSE 02:42:19 10° E daylight
20 May - 04:15:41 10° W 04:22:50 78° S 04:29:14 10° E visible
20 May - 06:03:18 10° W 06:09:55 56° SSW 06:15:39 10° ESE visible
20 May - 07:51:38 10° W 07:56:11 21° SW 08:00:16 10° SSE visible
21 May - 00:18:57 10° SSW 00:24:53 28° SSE 00:30:49 10° E daylight
21 May - 02:04:30 10° WSW 02:11:40 60° SSE 02:18:30 10° E daylight
21 May - 03:51:43 10° W 03:58:56 78° S 04:05:29 10° E visible
21 May - 05:39:18 10° W 05:46:04 57° SSW 05:51:58 10° ESE visible
21 May - 07:27:37 10° W 07:32:23 22° SW 07:36:40 10° SSE visible
